Weather past 2 weeks in Cayenne, French Guiana

Now
81 °F

Warm.


Feels Like: 85 °F
Forecast: 77 / 87 °F
Wind: 1 mph from East

Location: Cayenne / Rochambeau

Current Time: Oct 1, 2014 at 10:32:13 PM

Latest Report: Oct 1, 2014 at 10:00 PM


Visibility: N/A

Pressure: 29.92 "Hg

Humidity: 79%

Dew point: 73 °F

Location of CayenneLocation

Historic Weather in Cayenne — Graph

°F

Cayenne temperature yesterday

Maximum temperature yesterday: 88 °F (at 2:00 PM)
Minimum temperature yesterday: 73 °F (at 11:30 PM)
Average temperature yesterday: 79 °F

Past Weeks' High & Low Weather Summary

 TemperatureHumidityPressure
High91 °F (Sep 17, 2:30 PM)100% (Sep 20, 5:00 AM)30.01 "Hg (Sep 20, 5:00 AM)
Low72 °F (Sep 18, 5:00 AM)43% (Sep 26, 2:30 PM)29.83 "Hg (Sep 17, 2:30 PM)
Average80 °F78%29.90 "Hg
* Reported Sep 16 9:00 PM — Oct 1 9:30 PM, Cayenne, Weather by CustomWeather, © 2014

Note: Actual official high and low records may vary slightly from our data, if they occured in-between our weather recording intervals... More about our weather records

Advertising

Cayenne weather history for previous 24 hours

 ConditionsComfort  
Time TempWeatherWind HumidityBarometerVisibility
9:30 PM
Oct 1
81 °FWarm.2 mph84%29.92 "HgN/A
9:00 PM79 °FClear.1 mph89%29.92 "HgN/A
8:30 PM79 °FClear.No wind84%29.92 "HgN/A
8:00 PM81 °FClear.2 mph79%29.89 "HgN/A
7:30 PM81 °FWarm.3 mph79%29.89 "HgN/A
7:00 PM82 °FClear.2 mph74%29.89 "HgN/A
6:30 PM84 °FClear.6 mph70%29.89 "HgN/A
6:00 PM86 °FClear.9 mph62%29.89 "HgN/A
5:30 PM88 °FWarm.8 mph59%29.89 "HgN/A
5:00 PM88 °FClear.9 mph52%29.86 "HgN/A
4:30 PM90 °FPassing clouds.10 mph55%29.86 "HgN/A
4:00 PM90 °FHot.10 mph55%29.86 "HgN/A
3:30 PM91 °FClear.10 mph52%29.86 "HgN/A
3:00 PM90 °FHot.10 mph52%29.86 "HgN/A
2:30 PM90 °FPassing clouds.12 mph52%29.89 "HgN/A
2:00 PM91 °FScattered clouds.9 mph49%29.89 "HgN/A
1:30 PM91 °FPassing clouds.9 mph49%29.89 "HgN/A
1:00 PM91 °FPassing clouds.9 mph49%29.92 "HgN/A
12:30 PM91 °FClear.8 mph46%29.92 "HgN/A
12:00 PM91 °FClear.7 mph46%29.95 "HgN/A
11:30 AM90 °FPassing clouds.8 mph46%29.95 "HgN/A
11:00 AM90 °FPassing clouds.8 mph49%29.95 "HgN/A
10:30 AM88 °FScattered clouds.7 mph59%29.98 "HgN/A
10:00 AM86 °FBroken clouds.6 mph70%29.98 "HgN/A
9:30 AM84 °FPartly sunny.No wind74%29.98 "HgN/A
9:00 AM84 °FScattered clouds.No wind74%29.95 "HgN/A
8:30 AM81 °FClear.3 mph84%29.95 "HgN/A
8:00 AM79 °FPassing clouds.No wind89%29.95 "HgN/A
7:30 AM75 °FPartly sunny.No wind94%29.95 "HgN/A
7:00 AM73 °FClear.No wind94%29.95 "HgN/A
6:30 AM73 °FPassing clouds.2 mph94%29.92 "HgN/A
6:00 AM73 °FPassing clouds.2 mph94%29.92 "HgN/A
5:30 AM73 °FPassing clouds.1 mph94%29.92 "HgN/A
5:00 AM73 °FPassing clouds.No wind94%29.92 "HgN/A
4:30 AM73 °FMild.1 mph94%29.92 "HgN/A
4:00 AM75 °FPassing clouds.1 mph94%29.89 "HgN/A
3:30 AM73 °FPartly cloudy.No wind100%29.89 "HgN/A
3:00 AM75 °FPartly cloudy.No wind94%29.89 "HgN/A
2:30 AM73 °FPassing clouds.No wind94%29.89 "HgN/A
2:00 AM73 °FPassing clouds.2 mph94%29.92 "HgN/A
1:30 AM73 °FFog.No wind94%29.92 "HgN/A
1:00 AM73 °FClear.No wind94%29.92 "HgN/A
12:30 AM73 °FClear.No wind94%29.95 "HgN/A
12:00 AM75 °FClear.No wind94%29.95 "HgN/A
11:30 PM
Sep 30
73 °FClear.1 mph94%29.95 "HgN/A
11:00 PM75 °FMild.No wind89%29.95 "HgN/A
10:30 PM75 °FClear.No wind94%29.95 "HgN/A
10:00 PM75 °FPassing clouds.No wind94%29.95 "HgN/A
Weather by CustomWeather, © 2014

See weather overviewHow to use our weather pages